Location: Bégole
(43.1574°N, 0.3291°E)
Time: 07:15:03
(UTC+00:00)

Cosmos 1844 Rocket - Pass Details

Date: 28 January 2023
Orbit: 825 x 843 km, 71.0° (Epoch: 26 March)

Event Time Altitude Azimuth Distance (km) Brightness Sun altitude
Rises 19:25:29 0° 338° (NNW) 3,375 6.1 -25.6°
Reaches altitude 10° 19:27:59 10° 343° (NNW) 2,437 5.3 -26.1°
Enters shadow 19:31:50 41° 8° (N) 1,185 3.3 -26.8°
